Weather observations for the past three days for
Madison, Dane County Regional-Truax Field
Imperial (Metric)
Date Time (cdt) Wind (mph) Vis. (mi.) Weather Sky Cond. Temperature (ºF) Relative Humidity Wind Chill (°F) Heat Index (°F) Pressure Precipitation (in)
Air Dwpt 6 hour altimeter (in) sea level (mb) 1 hr 3 hr 6 hr
Max. Min.
14 06:53 Calm 10.00 A Few Clouds FEW090 62.1 57 62.1 55 84% 29.96 1014.2
14 05:53 Calm 8.00 A Few Clouds FEW090 55.9 54 93% 29.96 1014.0
14 04:53 Calm 10.00 Fair CLR 55.9 54 93% 29.95 1013.6
14 03:53 Calm 10.00 Fair CLR 55.9 53.1 90% 29.94 1013.6
14 02:53 Calm 10.00 Fair CLR 57.9 55 90% 29.93 1012.9
14 01:53 SE 3 10.00 Fair CLR 61 57 87% 29.92 1012.7
14 00:53 Calm 10.00 Fair CLR 61 57.9 82 61 90% 29.91 1012.5
13 23:53 Calm 10.00 Fair CLR 64 59 84% 29.9 1012.1
13 22:53 Calm 10.00 A Few Clouds FEW140 66 59 78% 29.89 1011.7
13 21:53 NW 3 10.00 A Few Clouds FEW140 72 59 64% 29.88 1011.4
13 20:53 W 5 10.00 A Few Clouds FEW140 75 59 58% 77 29.87 1010.8
13 19:53 W 5 10.00 A Few Clouds FEW150 80.1 60.1 51% 81 29.85 1010.4
13 18:53 Vrbl 3 10.00 A Few Clouds FEW150 82 60.1 82.9 79 47% 82 29.84 1009.8
13 17:53 NW 7 10.00 A Few Clouds FEW130 FEW250 82.9 57.9 43% 83 29.82 1009.4
13 16:53 Vrbl 3 10.00 Partly Cloudy SCT150 82.9 59 44% 83 29.81 1008.8
13 15:53 Calm 10.00 Mostly Cloudy BKN150 80.1 60.1 51% 81 29.83 1009.6
13 14:53 NW 5 10.00 Mostly Cloudy FEW070 BKN150 82 62.1 51% 83 29.84 1009.8
13 13:53 Vrbl 3 10.00 Mostly Cloudy FEW065 BKN130 80.1 64 58% 82 29.85 1010.2
13 12:53 NW 14 G 22 10.00 Mostly Cloudy FEW065 BKN150 81 64.9 82.9 68 58% 83 29.86 1010.6
13 11:53 W 9 10.00 Mostly Cloudy FEW065 BKN180 BKN250 82.9 66.9 59% 86 29.83 1009.6
13 10:53 SW 7 10.00 Mostly Cloudy FEW075 FEW160 BKN250 80.1 66.9 64% 82 29.81 1008.9
13 09:53 SW 9 10.00 Partly Cloudy SCT080 SCT250 78.1 66 67% 80 29.8 1008.6
13 08:53 Vrbl 6 10.00 A Few Clouds FEW110 75 66 74% 76 29.8 1008.7
13 07:53 S 12 10.00 Fair CLR 71.1 63 76% 29.77 1007.6
13 06:53 SE 13 10.00 A Few Clouds FEW055 FEW250 68 62.1 70 66 81% 29.77 1007.5 0.1
13 05:53 NE 8 10.00 Thunderstorm FEW035CB BKN060 OVC080 66 62.1 87% 29.83 1009.7 0.1
13 04:53 N 3 10.00 Mostly Cloudy FEW039 BKN110 68 62.1 81% 29.81 1008.8
13 03:53 N 16 G 24 10.00 A Few Clouds FEW095 69.1 62.1 78% 29.79 1008.1
13 02:53 S 5 10.00 A Few Clouds FEW120 69.1 62.1 78% 29.78 1007.8
13 01:53 S 6 10.00 Fair CLR 68 62.1 81% 29.78 1007.8
13 00:53 Calm 10.00 Fair CLR 68 62.1 69.1 66 81% 29.78 1007.9
12 23:53 Vrbl 6 10.00 Fair CLR 68 63 84% 29.8 1008.4
12 22:53 SW 3 10.00 Partly Cloudy SCT250 68 63 84% 29.81 1008.8
12 21:53 S 6 10.00 Partly Cloudy SCT250 69.1 64.9 87% 29.8 1008.4
12 20:53 Calm 10.00 Mostly Cloudy BKN150 BKN250 66 64 93% 29.78 1007.9
12 19:53 E 5 10.00 Mostly Cloudy FEW080 FEW110 BKN130 69.1 64 84% 29.79 1008.3
12 18:53 Calm 10.00 Light Rain FEW040 OVC110 68 64 87.1 68 87% 29.87 1011.2 0.06 0.06
12 17:53 NW 20 G 32 10.00 Light Rain FEW042 BKN080 OVC130 77 60.1 56% 79 29.89 1011.6
12 16:53 SW 6 10.00 Overcast OVC220 84.9 57.9 40% 84 29.84 1009.9
12 15:53 SW 7 10.00 Overcast OVC210 86 57 37% 85 29.84 1009.8
12 14:53 SW 7 10.00 Mostly Cloudy FEW190 BKN250 86 55 35% 84 29.86 1010.5
12 13:53 Vrbl 5 10.00 Mostly Cloudy BKN250 86 55 35% 84 29.87 1010.8
12 12:53 Vrbl 7 10.00 Mostly Cloudy BKN250 86 55 87.1 66 35% 84 29.87 1010.9
12 11:53 SW 8 10.00 Mostly Cloudy BKN250 84.9 53.1 33% 83 29.88 1011.2
12 10:53 Vrbl 7 10.00 Partly Cloudy SCT250 84 57 40% 83 29.88 1011.3
12 09:53 SW 3 10.00 A Few Clouds FEW250 80.1 60.1 51% 81 29.89 1011.5
12 08:53 Vrbl 3 10.00 A Few Clouds FEW250 75 59 58% 77 29.88 1011.2
12 07:53 Vrbl 5 10.00 A Few Clouds FEW250 71.1 59 66% 29.89 1011.7
12 06:53 Calm 10.00 A Few Clouds FEW250 64.9 57.9 68 57 78% 29.89 1011.7
12 05:53 Calm 10.00 A Few Clouds FEW250 57.9 54 87% 29.89 1011.8
12 04:53 Calm 10.00 Fair CLR 59 53.1 81% 29.87 1011.2
12 03:53 Calm 10.00 Fair CLR 63 54 73% 29.86 1010.9
12 02:53 Calm 10.00 Fair CLR 63 53.1 70% 29.85 1010.5
12 01:53 Vrbl 3 10.00 Fair CLR 66.9 53.1 61% 29.85 1010.5
12 00:53 Calm 10.00 Mostly Cloudy BKN085 66.9 52 73.9 66.9 59% 29.85 1010.5
11 23:53 S 6 10.00 Partly Cloudy SCT085 68 51.1 55% 29.86 1010.5
11 22:53 S 7 10.00 Fair CLR 68 50 53% 29.85 1010.5
11 21:53 S 7 10.00 Fair CLR 69.1 48.9 49% 29.86 1010.7
11 20:53 S 7 10.00 A Few Clouds FEW065 70 50 49% 29.85 1010.5
11 19:53 S 7 10.00 A Few Clouds FEW065 73 48.9 43% 29.86 1010.8
11 18:53 S 13 G 18 10.00 Partly Cloudy SCT065 73.9 46.9 73.9 71.1 38% 29.87 1011.0
11 17:53 S 10 10.00 Mostly Cloudy BKN070 73 46.9 40% 29.88 1011.7
11 16:53 S 12 G 20 10.00 Overcast OVC070 73 46.9 40% 29.88 1011.7
11 15:53 S 12 10.00 Overcast OVC075 72 45 38% 29.9 1012.2
11 14:53 Vrbl 7 10.00 Partly Cloudy FEW085 SCT110 72 46.9 41% 29.93 1013.4
11 13:53 Vrbl 6 10.00 Light Rain FEW090 BKN110 BKN200 71.1 45 39% 29.94 1013.6
11 12:53 SW 8 G 18 10.00 Mostly Cloudy SCT160 BKN230 73 43 73.9 55.9 34% 29.95 1014.1
11 11:53 W 8 G 17 10.00 Mostly Cloudy BKN170 BKN250 72 45 38% 29.96 1014.5
11 10:53 SW 9 G 17 10.00 Mostly Cloudy BKN190 BKN250 71.1 44.1 38% 29.97 1014.7
11 09:53 S 6 10.00 Mostly Cloudy SCT200 BKN250 68 46 45% 29.98 1015.2
11 08:53 SW 7 10.00 Mostly Cloudy FEW150 BKN250 64.9 48 54% 30 1015.6
11 07:53 S 6 10.00 Mostly Cloudy BKN250 60.1 48.9 67% 29.99 1015.4
Date Time (cdt) Wind (mph) Vis. (mi.) Weather Sky Cond. Air Dwpt Max. Min. Relative Humidity Wind Chill (°F) Heat Index (°F) altimeter (in) sea level (mb) 1 hr 3 hr 6 hr
6 hour
Temperature (ºF) Pressure Precipitation (in)